Location: Wells
(51.2093°N, 2.6446°W)
Time: 10:01:35
(UTC+01:00)

LilacSat-2 - Pass Details

Date: 20 March 2026
Orbit: 412 x 424 km, 97.5° (Epoch: 20 April)

Event Time Altitude Azimuth Distance (km) Brightness Sun altitude
Rises 19:57:03 0° 195° (SSW) 2,391 ? -15.1°
Reaches altitude 10° 19:59:19 10° 210° (SSW) 1,529 ? -15.5°
Maximum altitude 20:02:00 23° 265° (W) 970 ? -15.9°
Drops below altitude 10° 20:04:42 10° 320° (NW) 1,539 ? -16.3°
Sets 20:07:00 0° 336° (NNW) 2,411 ? -16.6°
